Regional Weather Roundup
Issued by NWS San Angelo, TX

Home | Current Version | Previous Version | Text Only | Print | Product List | Glossary Off
Versions: 1 2 3 4 5 6 7 8 9 10 11 12 13 14 15 16 17 18 19 20 21 22 23 24 25 26 27 28 29 30 31 32 33 34 35 36 37 38 39 40 41 42 43 44 45 46 47 48 49 50

114
ASUS44 KSJT 231410
RWRSJT
WEST CENTRAL TEXAS REGIONAL WEATHER ROUNDUP
NATIONAL WEATHER SERVICE SAN ANGELO TX
900 AM CDT FRI JUN 23 2017

NOTE: "FAIR" INDICATES FEW OR NO CLOUDS BELOW 12,000 FEET WITH NO
SIGNIFICANT WEATHER AND/OR OBSTRUCTIONS TO VISIBILITY.

TXZ049-054-064>066-071>073-076>078-098-099-113-114-127-128-139-140-
154-155-168>170-231500
...LOCATIONS ACROSS WEST CENTRAL TEXAS...

CITY           SKY/WX    TMP DP  RH WIND       PRES   REMARKS
SAN ANGELO     SUNNY     85  64  49 S8        29.82R
ABILENE        SUNNY     81  62  52 SW5       29.83R
DYESS AFB      SUNNY     84  62  47 SE5       29.81R
JUNCTION       SUNNY     82  69  64 S7        29.82R
SWEETWATER     SUNNY     87  56  34 W7        29.88R
BROWNWOOD      LGT RAIN  81  68  65 S3        29.81R
COLEMAN        SUNNY     81  62  53 S3        29.83R
SONORA         SUNNY     84  64  51 S9        29.88R
OZONA          FAIR      84  61  45 S13G18    29.86R
BRADY          NOT AVBL
$$

TEXAS PANHANDLE/OKLAHOMA PANHANDLE

CITY           SKY/WX    TMP DP  RH WIND       PRES   REMARKS
AMARILLO       SUNNY     77  59  53 CALM      29.99R
BORGER         CLOUDY    72  63  73 NE20G28   30.00R
CANADIAN       SUNNY     74  64  71 N17G24    29.94R
DALHART        CLOUDY    69  62  78 N26G33    30.07R
DUMAS          CLOUDY    66  61  85 N21G28    30.04R
GUYMON         NOT AVBL
HEREFORD       SUNNY     78  60  54 NE7       29.96S
PAMPA          CLOUDY    72  64  77 N15       30.00R
PERRYTON       CLOUDY    68  64  86 NE20G28   29.99R
$$

SOUTHERN PANHANDLE/SOUTH PLAINS/ROLLING PLAINS

CITY           SKY/WX    TMP DP  RH WIND       PRES   REMARKS
LUBBOCK        MOSUNNY   81  58  45 E12       29.88R
SNYDER         SUNNY     84  58  41 S6        29.86R
CHILDRESS      SUNNY     83  64  52 SE12      29.82R
SEMINOLE       PTSUNNY   85  56  36 S7        29.89R
$$

PERMIAN BASIN

CITY           SKY/WX    TMP DP  RH WIND       PRES   REMARKS
MIDLAND        SUNNY     86  56  35 SE8       29.86R
ODESSA         MOSUNNY   87  55  33 S13       29.88R
WINK           CLOUDY    86  56  35 SE20      29.82R
$$

FAR WEST/SOUTHWEST MOUNTAINS/TRANS PECOS

CITY           SKY/WX    TMP DP  RH WIND       PRES   REMARKS
ALPINE         CLOUDY    86  49  27 CALM      30.00R
DRYDEN           N/A     82  63  52 E6        29.81R
EL PASO        MOSUNNY   87  45  23 E5        29.87R
FORT STOCKTON  CLOUDY    86  57  37 S14       29.83R
GUADALUPE PASS SUNNY     80  46  30 SW15      30.01R
MARFA          CLOUDY    77  52  41 NW6       30.00R
PECOS          CLOUDY    83  57  40 NE9       29.81R
$$

DALLAS/FORT WORTH METROPLEX

CITY           SKY/WX    TMP DP  RH WIND       PRES   REMARKS
DFW AIRPORT    PTSUNNY   83  76  79 S12       29.77R
FTW MEACHAM    SUNNY     83  77  82 S12       29.78R
DAL-EXECUTIVE  MOSUNNY   81  76  84 S7        29.78S
GRAND PRAIRIE  MOSUNNY   79  73  83 S12       29.79S
ADDISON        MOSUNNY   81  73  78 S9        29.79R
MESQUITE       CLOUDY    79  75  89 S8        29.80R FOG
LANCASTER      PTSUNNY   79  75  87 S12       29.80S
$$

NORTH CENTRAL TEXAS

CITY           SKY/WX    TMP DP  RH WIND       PRES   REMARKS
SHRMAN/DENISON SUNNY     82  74  78 SW9       29.82R
GAINESVILLE    SUNNY     79  74  84 S5        29.83R
BRIDGEPORT     SUNNY     80  73  79 CALM      29.82R
DENTON         SUNNY     80  76  87 S6        29.79R
WAXAHACHIE     PTSUNNY   79  77  95 S8        29.81R
GRANBURY       SUNNY     82  74  78 E3        29.81R
$$

WESTERN NORTH TEXAS

CITY           SKY/WX    TMP DP  RH WIND       PRES   REMARKS
WICHITA FALLS  MOSUNNY   80  71  74 S8        29.76F
VERNON         CLOUDY    80  67  65 NE3       29.80R
BRECKENRIDGE   SUNNY     83  67  59 SW5       29.81R
COMANCHE       SUNNY     77  74  89 CALM      29.82R
$$

CENTRAL AND SOUTH CENTRAL TEXAS

CITY           SKY/WX    TMP DP  RH WIND       PRES   REMARKS
AUSTIN/BERGSTM PTSUNNY   83  75  77 S14       29.79R
WACO           SUNNY     82  75  79 S15       29.79R
HILLSBORO      SUNNY     82  75  81 S10       29.80R
TEMPLE         MOSUNNY   82  75  79 S16       29.81R
KILLEEN-GRAY   SUNNY     83  72  68 S13       29.79R
FORT HOOD      SUNNY    N/A N/A N/A S13       29.78R
GEORGETOWN     SUNNY     82  72  69 S15       29.80R
LAGO VISTA     FAIR      82  74  77 S9G16     29.83R
SAN MARCOS     PTSUNNY   81  75  83 S9        29.82R
NEW BRAUNFELS  PTSUNNY   83  75  77 S12       29.79R
RANDOLPH AFB   CLOUDY    81  79  94 S10       29.81R
SAN ANTONIO    MOSUNNY   82  73  74 S9        29.81R
STINSON        PTSUNNY   83  75  77 S8        29.78R
PLEASANTON     NOT AVBL
LA GRANGE      CLOUDY    85  79  82 S12       29.79R
GIDDINGS       PTSUNNY   82  74  77 S15G21    29.81R
$$

EAST TEXAS

CITY           SKY/WX    TMP DP  RH WIND       PRES   REMARKS
PARIS            N/A     80  77  90 SW7       29.81R
CLARKSVILLE    NOT AVBL
TYLER          PTSUNNY   83  76  79 S10       29.82R
LONGVIEW       CLOUDY    81  78  91 SW10      29.82R
PALESTINE      CLOUDY    79  77  92 S7        29.83R
NACOGDOCHES    CLOUDY    81  75  83 MISG      29.82S
$$

TEXAS HILL COUNTRY AND EDWARDS PLATEAU

CITY           SKY/WX    TMP DP  RH WIND       PRES   REMARKS
LLANO          SUNNY     84  72  65 CALM      29.83R HAZE
HORSESHOE BAY  FAIR      85  67  55 MISG      29.81R
KERRVILLE      SUNNY     80  71  75 S8        29.84R
FREDERICKSBRG  SUNNY     81  65  59 S7        29.85R
ROCKSPRINGS    SUNNY     81  70  69 S8        29.88R
HONDO          SUNNY     82  73  74 SE10      29.80S
UVALDE         SUNNY     80  71  72 SE7       29.80R
DEL RIO        SUNNY     82  69  64 E13       29.75R
$$

SOUTHEAST TEXAS

CITY           SKY/WX    TMP DP  RH WIND       PRES   REMARKS
COLLEGE STN    CLOUDY    80  77  90 S15G21    29.80R
CALDWELL       NOT AVBL
CROCKETT       CLOUDY    77  77 100 S6        29.85R
BRENHAM        CLOUDY    83  77  81 S12       29.82R
HUNTSVILLE     PTSUNNY   83  75  77 S14       29.82R
CONROE         PTSUNNY   83  76  79 S13       29.83R
HOUSTON BUSH   PTSUNNY   85  76  74 S9        29.82R
HOUSTON HOBBY  MOSUNNY   85  76  74 S10G20    29.82R
PERLAND        MOSUNNY   86  75  69 S13G20    29.83R
WHARTON        SUNNY     84  74  72 S14       29.82R
$$

THE UPPER TEXAS COAST

CITY           SKY/WX    TMP DP  RH WIND       PRES   REMARKS
ORANGE         CLOUDY    83  78  87 S12G18    29.87R
PORT ARTHUR    CLOUDY    82  77  84 S13       29.84R
GALVESTON      PTSUNNY   84  79  85 S16       29.85R
ANGLETON       MOSUNNY   84  76  76 S16       29.82R
BAY CITY       MOSUNNY   85  76  75 S14       29.81S
$$

TEXAS COASTAL BEND, RIO GRANDE PLAINS DEEP SOUTH TEXAS

CITY           SKY/WX    TMP DP  RH WIND       PRES   REMARKS
VICTORIA       MOSUNNY   87  75  67 S16G26    29.79S
BEEVILLE       CLOUDY    85  82  91 S18G25    29.78R
ROCKPORT       MOSUNNY   86  75  69 S14G22    29.78S
PORT ARANSAS   PTSUNNY   85  75  71 S15G23    29.78S
PORT LAVACA    PTSUNNY   86  79  80 S12G22    29.80R
CORPUS CHRISTI PTSUNNY   86  78  77 S12G22    29.78R
KINGSVILLE NAS MOSUNNY   86  78  77 S18       29.76S
COTULLA        SUNNY     84  72  67 S8        29.76R
LAREDO         SUNNY     85  72  65 SE16      29.75R
BROWNSVILLE    MOSUNNY   86  77  74 S16       29.78R
PORT ISABEL    MOSUNNY   87  77  72 S17       29.76R
HEBBRONVILLE   SUNNY     82  73  73 S16G22    29.78S
MCALLEN        SUNNY     87  76  69 SE18G26   29.76R
WESLACO        CLOUDY    86  75  69 S16G23    29.75R
FALFURRIAS     MOSUNNY   84  76  76 S13       29.77R
EDINBURG       SUNNY     88  74  63 SE15      29.76S
$$




USA.gov is the U.S. government's official web portal to all federal, state and local government web resources and services.